Terminal Aerodrome Forecast
Issued by NWS

Home | Current Version | Previous Version | Text Only | Print | Product List | Glossary On
Versions: 1 2 3 4 5 6 7 8 9 10 11 12 13 14 15 16 17 18 19 20 21
002
FTUS43 KLSX 170435 AAB
TAFSUS
TAF AMD
KSUS 170435Z 1705/1724 22012KT 5SM SHRA BR BKN010
     FM170600 26013G23KT 5SM BR OVC015
     FM170800 26008KT 6SM BR OVC010
     FM172100 27009KT P6SM OVC015=

USA.gov is the U.S. government's official web portal to all federal, state and local government web resources and services.